This is the latest recevied weather packets stored in our database for station/object SP3ZBZ-13. If no packets are shown the sender has not sent any weather packets the latest 10 day(s).
| Time | Temp. | Humidity | Pressure | Rain* | Wind** | Luminosity | Snow |
|---|---|---|---|---|---|---|---|
| 1777491610 | 4.44° C | 53% | 1026.4 hPa | - | - | - | - |
| 1777490709 | 5° C | 53% | 1026.3 hPa | - | - | - | - |
| 1777489808 | 5.56° C | 53% | 1026.2 hPa | - | - | - | - |
| 1777488907 | 6.11° C | 53% | 1026.1 hPa | - | - | - | - |
| 1777488005 | 7.78° C | 50% | 1025.8 hPa | - | - | - | - |
| 1777487104 | 8.89° C | 39% | 1025.7 hPa | - | - | 1 W/m² | - |
| 1777486203 | 9.44° C | 40% | 1025.6 hPa | - | - | 4 W/m² | - |
| 1777485302 | 10° C | 36% | 1025.5 hPa | - | - | 13 W/m² | - |
| 1777484401 | 10.56° C | 35% | 1025.4 hPa | - | - | 24 W/m² | - |
| 1777483500 | 11.11° C | 33% | 1025.3 hPa | - | - | 34 W/m² | - |
| 1777482599 | 11.11° C | 33% | 1025.3 hPa | - | - | 45 W/m² | - |
| 1777481698 | 11.11° C | 33% | 1025.4 hPa | - | - | 52 W/m² | - |
| 1777480797 | 11.11° C | 33% | 1025.4 hPa | - | - | 97 W/m² | - |
| 1777479896 | 11.11° C | 34% | 1025.3 hPa | - | - | 123 W/m² | - |
| 1777478995 | 11.11° C | 35% | 1025.3 hPa | - | - | 161 W/m² | - |
| 1777478094 | 10.56° C | 34% | 1025.4 hPa | - | - | 90 W/m² | - |
| 1777477193 | 11.67° C | 33% | 1025.3 hPa | - | - | 104 W/m² | - |
| 1777476293 | 11.67° C | 33% | 1025.2 hPa | - | - | 285 W/m² | - |
| 1777475392 | 11.67° C | 32% | 1025.3 hPa | - | - | 321 W/m² | - |
| 1777474490 | 10.56° C | 35% | 1025.4 hPa | - | - | 94 W/m² | - |
| 1777473590 | 10.56° C | 32% | 1025.4 hPa | - | - | 121 W/m² | - |
| 1777472689 | 11.11° C | 33% | 1025.4 hPa | - | - | 310 W/m² | - |
| 1777471788 | 10.56° C | 33% | 1025.5 hPa | - | - | 120 W/m² | - |
| 1777470887 | 11.67° C | 33% | 1025.6 hPa | - | - | 526 W/m² | - |
| 1777469986 | 10.56° C | 33% | 1025.5 hPa | - | - | 553 W/m² | - |
* Rain since midnight (hover to see other rain measurements)
** Current wind speed in m/s (hover to see current wind gust speed)